Weather Roundup
Issued by NWS

Home | Current Version | Previous Version | Text Only | Print | Product List | Glossary On
Versions: 1 2 3 4 5 6 7 8 9 10 11 12 13 14 15 16 17 18 19 20 21 22 23 24 25 26 27 28 29 30 31 32 33 34 35 36 37 38 39 40 41 42 43 44 45 46 47 48 49 50
832
NZUS93 KARX 220410
HRRWXR

CURRENT HOURLY OBSERVATIONS ACROSS
MUCH OF THE UPPER MISSISSIPPI VALLEY
NATIONAL WEATHER SERVICE LA CROSSE WI
1100 PM CDT FRI JUL 21 2017


...SOUTHEAST MINNESOTA...


CITY           SKY/WX    TMP DP  RH WIND       PRES   REMARKS
ROCHESTER      CLEAR     68  67  96 NE9       29.85F
ROCHESTER/MAYO FAIR      70  69  98 NE5       29.85F
WINONA         CLOUDY    70  68  94 E5        29.84F
AUSTIN         CLOUDY    72  66  83 NE6       29.83S
ALBERT LEA     CLOUDY    72  70  94 NE7       29.84S
DODGE CENTER   CLEAR     70  66  88 NE6       29.85F
PRESTON        CLOUDY    68  66  92 NE6       29.85F
OWATONNA       MOCLDY    73  68  83 E7        29.85F
FARIBAULT      MOCLDY    72  68  88 NE6       29.86S
$$

...ELSEWHERE IN MINNESOTA...


CITY           SKY/WX    TMP DP  RH WIND       PRES   REMARKS
MINNEAPOLIS    CLOUDY    76  67  73 E9        29.87R
INTNL FALLS    MOCLDY    59  57  93 CALM      29.82S
DULUTH         CLOUDY    62  62 100 E8        29.82S
RED WING       MOCLDY    73  66  78 E6        29.86S
REDWOOD FALLS  CLEAR     73  68  84 E7        29.83R
MANKATO        CLOUDY    74  69  85 NE7       29.84S
WORTHINGTON    MOCLDY    73  72  94 NE9       29.83S
FAIRMONT       CLOUDY    73  71  93 E6        29.83R
$$

...SOUTHWEST WISCONSIN...


CITY           SKY/WX    TMP DP  RH WIND       PRES   REMARKS
LA CROSSE      CLOUDY    73  70  90 N3        29.82F
PRAIRIE DU CHI CLOUDY    71  70  96 CALM      29.81R
BOSCOBEL       CLOUDY    73  71  93 NE5       29.81F
LONE ROCK      CLOUDY    72  69  90 E9        29.83F
PLATTEVILLE    CLOUDY    71  71 100 E8        29.80F
FORT MC COY    CLOUDY    65  65 100 N3        29.85F
CAMP DOUGLAS   FOG       68  68 100 CALM      29.86F VSB 3/4
MAUSTON-NEW LI CLOUDY    70  70  98 CALM      29.85F
VIROQUA        CLOUDY    69  69 100 E9        29.83F
WIS DELLS      DRIZZLE   68  66  94 E8        29.85F
$$

...ELSEWHERE IN WISCONSIN...


CITY           SKY/WX    TMP DP  RH WIND       PRES   REMARKS
MILWAUKEE      LGT RAIN  66  62  87 E7        29.87F
MADISON        CLOUDY    68  67  96 E6        29.84F
GREEN BAY      CLOUDY    71  67  87 CALM      29.89S
EAU CLAIRE     CLOUDY    71  67  87 S3        29.88S
BLACK RVR FLS  FAIR      66  66 100 CALM      29.86F FOG
MEDFORD        CLOUDY    64  64  98 CALM      29.90F
WAUSAU         CLEAR     65  64  97 CALM      29.88F
WIS RAPIDS     PTCLDY    68  67  96 CALM      29.89F FOG
MARSHFIELD     CLEAR     67  64  90 CALM      29.89F
RICE LAKE      LGT RAIN  67  63  87 CALM      29.94R
$$

...NORTHEAST IOWA...


CITY           SKY/WX    TMP DP  RH WIND       PRES   REMARKS
WATERLOO       CLOUDY    73  70  90 NE13      29.78R
DUBUQUE        CLOUDY    71  70  96 E10       29.81F
DECORAH        CLOUDY    70  70 100 NE8       29.81F
MASON CITY     CLOUDY    71  70  96 NE7       29.81F
CHARLES CITY   HVY RAIN  72  72 100 E24       29.76F
OELWEIN        HVY RAIN  70  66  88 N21G46    29.80R
$$

...ELSEWHERE IN IOWA...


CITY           SKY/WX    TMP DP  RH WIND       PRES   REMARKS
DES MOINES     CLEAR     87  75  67 S7        29.73S HX  96
IOWA CITY      MOCLDY    77  74  90 S3        29.78F
FORT DODGE     CLOUDY    73  72  94 NE7       29.77F
MARSHALLTOWN   PTCLDY    74  73  97 SE6       29.74F
CEDAR RAPIDS   MOCLDY    73  73 100 SE6       29.75F
$$

...NORTHERN ILLINOIS...


CITY           SKY/WX    TMP DP  RH WIND       PRES   REMARKS
CHICAGO-OHARE  TSTM      74  71  91 E6        29.89R FOG
CHICAGO-MIDWAY TSTM      77  74  90 SE7       29.87S FOG
MOLINE         CLOUDY    78  73  84 E10       29.80S
ROCKFORD       TSTM      74  70  87 SE8       29.85F
PEORIA         PTCLDY    86  73  65 SW8       29.83R HX  93
$$

NOTE: "FAIR" INDICATES FEW OR NO CLOUDS BELOW 12,000 FEET WITH NO
SIGNIFICANT WEATHER AND/OR OBSTRUCTIONS TO VISIBILITY. WIND
SPEEDS ARE IN MILES-PER-HOUR.




USA.gov is the U.S. government's official web portal to all federal, state and local government web resources and services.